* Astronomy

Members Login
Post Info TOPIC: Cosmos2392 Re-entry


L

Posts: 131433
Date:
Cosmos-2392 Re-entry
Permalink  
 


Parts of the classified Cosmos-2392 satellite are predicted to re-enter the earths atmosphere on April 26th, 2006.
The satellite belonging to the Araks (Arkon) family of spacecraft developed by NPO Lavochkin was launched at 19:13 Moscow Time, 25th, July 2002, aboard a Proton booster rocket from Site 81 at the Baikonur Cosmodrome (also known as Tyuratam), Kazakhstan.
The dual-purpose spacecraft, designed for military and civilian observations of the Earth surface entered a highly elliptical orbit around the Earth.


2006-04-26 10:38:05 UT
Period: 90.26 minutes
Inclination: 63.36
Apogee: 332 km
Perigee: 243 km

TLE Data:

SL-12 DEB
1 28751U 02037AW 06113.20624295 .01099877 62943-3 16801-2 0 4425
2 28751 063.3563 073.0771 0055078 116.6188 244.0622 16.01103363 45588
1 28751U 02037AW 06113.08146913 .01085700 60827-3 16817-2 0 4412
2 28751 063.3570 073.5587 0055526 116.4534 245.0954 16.00828821 45566
1 28751U 02037AW 06112.51892497 .00763620 27484-3 12392-2 0 4402
2 28751 063.3623 075.7278 0060993 116.2023 244.5625 15.99412711 45474
1 28751U 02037AW 06112.20628592 .00726833 24570-3 12219-2 0 4395
2 28751 063.3629 076.9321 0060542 116.1033 244.6476 15.98889959 45423
1 28751U 02037AW 06111.95608949 +.00712355 +23428-3 +12204-2 0 04399
2 28751 063.3634 077.8938 0061058 115.9414 244.8307 15.98523844045384


-- Edited by Blobrana at 11:50, 2006-04-23

__________________


L

Posts: 131433
Date:
Cosmos2392 Re-entry
Permalink  
 


A Proton-K Auxiliary Motor that was launched on the 25th July 2002 from the Baikonur Cosmodrome LC81, on the Cosmos 2392 mission, was predicted to re-enter the Earths atmosphere on the 28th February 2006 @ 13:19 UTC ± 20 minutes.



TLE Data:

SL-12 R/B(AUX MOTOR)
1 27474U 02037E 06059.54900602 .99999999 87087-5 84978-3 0 3284
2 27474 063.7023 259.2059 0014081 055.6204 304.2505 16.52255462187356
1 27474U 02037E 06059.06164140 .06834105 83023-5 77312-3 0 3274
2 27474 063.6952 261.1855 0022439 081.2985 279.3815 16.35585426187273
1 27474U 02037E 06058.93927086 .05632320 82849-5 73512-3 0 3261
2 27474 063.7009 261.6700 0030707 072.9972 287.4565 16.33499746187258
1 27474U 02037E 06058.87805147 .05230527 82651-5 72712-3 0 3251
2 27474 063.6986 261.9147 0032126 074.9149 285.5566 16.32771879187242
1 27474U 02037E 06058.57157489 .03877183 81845-5 73400-3 0 3248
2 27474 063.6971 263.1409 0031912 081.4793 279.0047 16.29861335187190


__________________
Page 1 of 1  sorted by
Quick Reply

Please log in to post quick replies.



Create your own FREE Forum
Report Abuse
Powered by ActiveBoard